This is the latest recevied weather packets stored in our database for station/object YC0ACE-13. If no packets are shown the sender has not sent any weather packets the latest 10 day(s).
| Time | Temp. | Humidity | Pressure | Rain* | Wind** | Luminosity | Snow |
|---|---|---|---|---|---|---|---|
| 1777007424 | 32.22° C | 63% | 1012.2 hPa | 0 mm | - | 270 W/m² | - |
| 1777007124 | 32.22° C | 64% | 1012.2 hPa | 0 mm | - | 193 W/m² | - |
| 1777006825 | 32.78° C | 61% | 1012.5 hPa | 0 mm | - | 192 W/m² | - |
| 1777006524 | 32.22° C | 63% | 1012.2 hPa | 0 mm | - | 236 W/m² | - |
| 1777006224 | 32.78° C | 62% | 1012.5 hPa | 0 mm | - | 287 W/m² | - |
| 1777005925 | 32.22° C | 63% | 1012.5 hPa | 0 mm | - | 300 W/m² | - |
| 1777005625 | 32.22° C | 63% | 1012.5 hPa | 0 mm | - | 265 W/m² | - |
| 1777005324 | 32.22° C | 63% | 1012.9 hPa | 0 mm | - | 331 W/m² | - |
| 1777005025 | 32.22° C | 63% | 1012.9 hPa | 0 mm | - | 231 W/m² | - |
| 1777004724 | 32.22° C | 62% | 1012.9 hPa | 0 mm | - | 389 W/m² | - |
| 1777004425 | 32.22° C | 61% | 1012.9 hPa | 0 mm | - | 338 W/m² | - |
| 1777004124 | 32.22° C | 62% | 1012.9 hPa | 0 mm | - | 403 W/m² | - |
| 1777003825 | 32.22° C | 64% | 1013.2 hPa | 0 mm | - | 893 W/m² | - |
| 1777003524 | 32.22° C | 63% | 1012.9 hPa | 0 mm | - | 913 W/m² | - |
| 1777003224 | 32.22° C | 63% | 1013.2 hPa | 0 mm | - | 849 W/m² | - |
| 1777002925 | 31.67° C | 65% | 1013.2 hPa | 0 mm | - | 711 W/m² | - |
| 1777002625 | 31.67° C | 65% | 1013.2 hPa | 0 mm | - | 657 W/m² | - |
| 1777002324 | 31.67° C | 64% | 1013.2 hPa | 0 mm | - | 296 W/m² | - |
| 1777002024 | 31.67° C | 64% | 1013.2 hPa | 0 mm | - | 354 W/m² | - |
| 1777001725 | 31.67° C | 64% | 1013.2 hPa | 0 mm | - | 249 W/m² | - |
| 1777001424 | 31.67° C | 65% | 1013.2 hPa | 0 mm | - | 264 W/m² | - |
| 1777001124 | 31.67° C | 66% | 1013.5 hPa | 0 mm | - | 330 W/m² | - |
| 1777000825 | 31.67° C | 65% | 1013.5 hPa | 0 mm | - | 234 W/m² | - |
| 1777000526 | 31.67° C | 64% | 1013.5 hPa | 0 mm | - | 162 W/m² | - |
| 1777000225 | 31.67° C | 65% | 1013.5 hPa | 0 mm | - | 388 W/m² | - |
* Rain latest hour (hover to see other rain measurements)
** Current wind speed in m/s (hover to see current wind gust speed)